Location: Wellington
(41.3000°S, 174.7830°E)
Time: 10:05:00
(UTC+13:00)

H-2A R/B - Pass Details

Date: 24 January 2019
Orbit: 734 x 836 km, 98.3° (Epoch: 21 October)

Event Time Altitude Azimuth Distance (km) Brightness Sun altitude
Rises 22:34:02 0° 165° (SSE) 3,264 5.7 -16.7°
Reaches altitude 10° 22:36:24 10° 161° (SSE) 2,317 4.8 -17.0°
Maximum altitude 22:41:28 65° 79° (E) 827 1.9 -17.6°
Enters shadow 22:44:23 25° 3° (N) 1,491 3.1 -18.0°
